Weather History for Wilmington, NC

Change the Weather History Date:

Thursday, June 6, 2013

  Actual Average Record
Temperature  
Mean Temperature 76 °F 76 °F  
Max Temperature 79 °F 85 °F 97 °F (1933)
Min Temperature 73 °F 66 °F 51 °F (1921)
Degree Days  
Heating Degree Days 0 0  
Month to date heating degree days 0 0  
Since 1 June heating degree days 0 0  
Since 1 July heating degree days 2446 2409  
Cooling Degree Days 11 11  
Month to date cooling degree days 64 62  
Year to date cooling degree days 290 343  
Since 1 June cooling degree days 64 62  
Growing Degree Days 26 (Base 50)    
Moisture  
Dew Point 71 °F    
Average Humidity 87    
Maximum Humidity 100    
Minimum Humidity 74    
Precipitation  
Precipitation 0.44 in 0.17 in 1.87 in (2006)
Month to date precipitation 1.43 0.98  
Year to date precipitation 18.14 19.88  
Sea Level Pressure  
Sea Level Pressure 29.93 in    
Wind  
Wind Speed 8 mph (SE)    
Max Wind Speed 17 mph    
Max Gust Speed 30 mph    
Visibility 9 miles    
Events Rain    
T = Trace of Precipitation, MM = Missing Value Source: NWS Daily Summary

Daily Weather History Graph

Daily Weather History Graph

Search for Another Location

Airport:

Trip Planner

Search our weather history database for the weather conditions in past years. The results will help you decide how hot, cold, wet, or windy it might be!

Date:

Astronomy

Jun. 06, 2013 Rise Set
Actual Time 5:59 AM EDT 8:21 PM EDT
Civil Twilight 5:30 AM EDT 8:50 PM EDT
Nautical Twilight 4:54 AM EDT 9:26 PM EDT
Astronomical Twilight 4:15 AM EDT 10:05 PM EDT
Moon 4:35 AM EDT (6/6) 6:44 PM EDT (6/6)
Length of Visible Light 15h 20m
Length of Day
14h 21m
Waning Crescent, 4% of the Moon is Illuminated
Jun 6
Waning Crescent
Jun 8
New
Jun 16
First Quarter
Jun 23
Full
Jun 30
Last Quarter

Hourly Weather History & Observations

Time (EDT) Temp. Dew Point Humidity Pressure Visibility Wind Dir Wind Speed Gust Speed Precip Events Conditions
12:53 AM 73.0 °F 69.1 °F 87% 30.03 in 10.0 mi East 8.1 mph - N/A   Mostly Cloudy
1:53 AM 73.9 °F 69.1 °F 85% 30.02 in 10.0 mi East 5.8 mph - N/A   Mostly Cloudy
2:53 AM 75.0 °F 68.0 °F 79% 30.00 in 10.0 mi East 8.1 mph - N/A   Overcast
3:35 AM 75.2 °F 68.0 °F 78% 29.98 in 10.0 mi East 10.4 mph - N/A   Mostly Cloudy
3:46 AM 75.2 °F 69.8 °F 83% 29.98 in 10.0 mi ESE 6.9 mph - N/A   Mostly Cloudy
3:53 AM 75.0 °F 69.1 °F 82% 29.98 in 10.0 mi ESE 4.6 mph - N/A   Scattered Clouds
4:53 AM 73.9 °F 69.1 °F 85% 29.96 in 10.0 mi East 6.9 mph - N/A   Scattered Clouds
5:53 AM 75.0 °F 69.1 °F 82% 29.96 in 10.0 mi ESE 9.2 mph - N/A   Clear
6:53 AM 75.0 °F 69.1 °F 82% 29.95 in 10.0 mi SE 10.4 mph - 0.00 in Rain Light Rain
7:53 AM 75.9 °F 69.1 °F 79% 29.95 in 10.0 mi SE 10.4 mph 17.3 mph 0.00 in   Mostly Cloudy
8:53 AM 78.1 °F 70.0 °F 76% 29.95 in 10.0 mi SE 12.7 mph 18.4 mph 0.00 in   Mostly Cloudy
9:53 AM 79.0 °F 70.0 °F 74% 29.95 in 10.0 mi SSE 10.4 mph 19.6 mph N/A   Scattered Clouds
10:53 AM 78.1 °F 70.0 °F 76% 29.96 in 10.0 mi SE 11.5 mph 17.3 mph N/A   Overcast
11:34 AM 78.8 °F 71.6 °F 78% 29.95 in 10.0 mi SE 13.8 mph 23.0 mph 0.00 in Rain Light Rain
11:49 AM 77.0 °F 71.6 °F 83% 29.96 in 10.0 mi SE 11.5 mph - 0.00 in Rain Light Rain
11:53 AM 77.0 °F 72.0 °F 84% 29.96 in 10.0 mi SE 13.8 mph 19.6 mph 0.00 in Rain Light Rain
12:15 PM 77.0 °F 71.6 °F 83% 29.95 in 10.0 mi SSE 12.7 mph 20.7 mph 0.00 in Rain Light Rain
12:27 PM 75.2 °F 71.6 °F 89% 29.95 in 2.0 mi SSE 12.7 mph 18.4 mph 0.01 in Rain Light Rain
12:38 PM 73.4 °F 71.6 °F 94% 29.95 in 2.0 mi SSE 10.4 mph 20.7 mph 0.03 in Rain Rain
12:50 PM 73.4 °F 71.6 °F 94% 29.95 in 2.0 mi SSE 8.1 mph - 0.08 in Rain Rain
12:53 PM 73.9 °F 72.0 °F 93% 29.94 in 2.0 mi South 6.9 mph - 0.09 in Rain Rain
12:58 PM 73.4 °F 71.6 °F 94% 29.94 in 2.0 mi SSE 10.4 mph - 0.02 in Rain Rain
1:05 PM 73.4 °F 71.6 °F 94% 29.94 in 2.0 mi SSE 9.2 mph - 0.04 in Rain Light Rain
1:12 PM 73.4 °F 71.6 °F 94% 29.94 in 3.0 mi South 9.2 mph - 0.04 in Rain Light Rain
1:53 PM 75.0 °F 72.0 °F 90% 29.93 in 10.0 mi SSE 5.8 mph - 0.04 in Rain Light Rain
2:50 PM 77.0 °F 71.6 °F 83% 29.91 in 10.0 mi Variable 6.9 mph - 0.00 in   Overcast
2:53 PM 77.0 °F 72.0 °F 84% 29.91 in 10.0 mi South 6.9 mph - 0.00 in   Overcast
3:53 PM 75.9 °F 72.0 °F 87% 29.89 in 10.0 mi SSE 6.9 mph - 0.00 in   Overcast
4:16 PM 77.0 °F 73.4 °F 89% 29.88 in 10.0 mi ESE 6.9 mph - 0.00 in   Scattered Clouds
4:36 PM 75.2 °F 73.4 °F 94% 29.88 in 10.0 mi ESE 9.2 mph - 0.00 in   Mostly Cloudy
4:53 PM 77.0 °F 73.0 °F 88% 29.88 in 10.0 mi ESE 6.9 mph - 0.00 in   Overcast
5:09 PM 77.0 °F 73.4 °F 89% 29.87 in 10.0 mi SSW 11.5 mph - 0.00 in Rain Light Rain
5:21 PM 78.8 °F 71.6 °F 78% 29.87 in 10.0 mi SSW 9.2 mph - 0.00 in   Scattered Clouds
5:53 PM 78.1 °F 71.1 °F 79% 29.87 in 10.0 mi South 5.8 mph - 0.00 in   Scattered Clouds
6:53 PM 77.0 °F 71.1 °F 82% 29.86 in 10.0 mi SSW 3.5 mph - N/A   Scattered Clouds
7:53 PM 77.0 °F 71.1 °F 82% 29.88 in 10.0 mi South 5.8 mph - N/A   Overcast
8:53 PM 75.9 °F 72.0 °F 87% 29.88 in 10.0 mi SSE 3.5 mph - N/A   Mostly Cloudy
9:53 PM 75.0 °F 72.0 °F 90% 29.88 in 10.0 mi ESE 5.8 mph - N/A   Mostly Cloudy
10:53 PM 75.0 °F 73.0 °F 94% 29.88 in 10.0 mi ESE 5.8 mph - 0.00 in Rain Light Rain
11:53 PM 73.9 °F 73.0 °F 97% 29.86 in 8.0 mi East 3.5 mph - 0.05 in Rain Light Rain